Regional Weather Roundup
Issued by NWS Midland/Odessa, TX

Skip options and go directly to product.
Home | Oldest Version | Next Version | Current Version | All | Text Only | Save Text | Print | Product List | Glossary On

Skip product version selection by date and time.   
423
ASUS44 KMAF 031801
RWRMAF
MIDLAND AREA WEATHER ROUNDUP
NATIONAL WEATHER SERVICE MIDLAND TX
1200 PM CST TUE MAR 03 2015

...IN SOUTHWEST TEXAS AND SOUTHEAST NEW MEXICO...

CITY           SKY/WX    TMP DP  RH WIND       PRES   REMARKS
ALPINE         MOSUNNY   66  36  32 SW24G31   29.98F
ANDREWS        CLOUDY    46  45  97 N3        29.90F
ARTESIA        CLOUDY    39  39 100 NW6       29.93S FOG     WCI  35
BIG SPRING     CLOUDY   N/A N/A N/A S9        29.92F
CARLSBAD       CLOUDY    47  39  74 NW9       29.89F
DRYDEN           N/A     54  44  69 S6        29.90F
FORT STOCKTON    N/A     53  45  74 N5        29.87F
GUAD PASS      NOT AVBL
HOBBS          MOSUNNY   46  46 100 N6        29.91S
MARFA          MOSUNNY   68  37  32 S21       29.96F
MIDLAND AIRPK  CLOUDY    49  49 100 CALM      29.89F
MIDLAND INTL   CLOUDY    49  46  90 CALM      29.88F
ODESSA         CLOUDY    48  44  86 VRB3      29.89F
PECOS          CLOUDY    46  41  82 N3        29.88F
PRESIDIO       FAIR      67  40  37 E5        29.87F
SEMINOLE       CLOUDY    47  44  90 N5        29.91F
SNYDER         CLOUDY    46  45  99 W8        29.93S FOG
WINK           CLOUDY    49  41  74 SE3       29.87F
$$
...OTHER STATIONS IN TEXAS...

CITY           SKY/WX    TMP DP  RH WIND       PRES   REMARKS
ABILENE        CLOUDY    54  49  83 S14       29.89F
AMARILLO       CLOUDY    53  35  50 W12       29.83F
AUSTIN         FOG       47  47 100 CALM      29.97F VSB 1/4
BROWNSVILLE    PTSUNNY   77  69  76 S21G28    29.97F
CORPUS CHRISTI DRIZZLE   63  61  93 SW8       29.98F FOG
DALLAS FTW     DRIZZLE   47  46  97 CALM      29.97F FOG
DEL RIO        CLOUDY    54  48  80 E10       29.94F
EL PASO        LGT RAIN  53  49  86 NE5       29.93R
HOUSTON INT    CLOUDY    72  67  84 S12       30.00F FOG
LUBBOCK        CLOUDY    49  43  80 W5        29.88F
SAN ANGELO     CLOUDY    57  50  77 S14       29.90F
SAN ANTONIO    FOG       55  52  89 S5        29.98F VSB 1/2
WACO           FOG       45  44  97 CALM      29.97F VSB 1/2
WICHITA FALLS  NOT AVBL
$$
...OTHER LOCATIONS IN NEW MEXICO...

CITY           SKY/WX    TMP DP  RH WIND       PRES   REMARKS
ALAMAGORDO     LGT RAIN  50  46  87 SE6       29.94F
ALBUQUERQUE    PTSUNNY   45  28  51 CALM      29.90F
CANNON AFB     DRIZZLE   47  37  67 W8        29.88R
CLOVIS         CLOUDY    48  37  66 NW13      29.87S
HOLLOMAN AFB   LGT RAIN  51  50  94 SW7       29.91F
ROSWELL        LGT RAIN  43  38  82 NW5       29.92S
RUIDOSO        CLOUDY    41  39  93 SW12      29.95F WCI  34
SANTA FE       MOSUNNY   42  25  50 SW14G21   29.89F WCI  35
TRUTH OR CONSE PTSUNNY   49  43  80 SE7       29.90F
TUCUMCARI      CLOUDY    53  33  46 W18       29.84F
$$

USA.gov is the U.S. government's official web portal to all federal, state and local government web resources and services.